CW9336 Weather Reports


Display with metric or nautical units.
time (UTC)temp
F
wind
direction
speed
MPH
gust
MPH
rain 1hr
in
rain 24hr
in
rain mn
in
humidity
%
barometer
mb
20260502221525 48 304 3.0 5.0 0.00 0.01 0.00 45 1016.7
20260502220026 48 11 3.0 9.0 0.00 0.01 0.00 43 1016.8
20260502214525 48 32 2.0 11.0 0.00 0.01 0.00 45 1016.7
20260502213036 48 321 2.0 10.0 0.00 0.01 0.00 42 1016.7
20260502211513 48 5 3.0 9.0 0.00 0.01 0.00 43 1016.8
20260502210013 48 31 3.0 8.0 0.00 0.01 0.00 44 1016.9
20260502204511 47 283 2.0 7.0 0.00 0.01 0.00 43 1017.0
20260502203012 47 55 4.0 9.0 0.00 0.01 0.00 44 1017.0
20260502201536 47 13 4.0 13.0 0.00 0.01 0.00 43 1017.3
20260502200014 48 207 3.0 8.0 0.00 0.01 0.00 45 1017.3
20260502194515 48 352 4.0 10.0 0.00 0.01 0.00 43 1017.4
20260502193018 47 311 5.0 9.0 0.00 0.01 0.00 43 1017.6
20260502191522 47 352 3.0 8.0 0.00 0.01 0.00 45 1017.8
20260502190021 47 242 2.0 9.0 0.00 0.01 0.00 46 1018.0
20260502184520 47 317 5.0 12.0 0.00 0.01 0.00 43 1018.1
20260502183028 47 317 4.0 10.0 0.00 0.01 0.00 45 1018.1
20260502181524 46 346 1.0 9.0 0.00 0.01 0.00 46 1018.2
20260502163028 46 30 4.0 11.0 0.00 0.03 0.00 50 1018.8
20260502161526 46 332 4.0 11.0 0.00 0.03 0.00 49 1018.8
20260502151514 45 347 4.0 11.0 0.00 0.03 0.00 54 1018.7
20260502123023 38 9 4.0 7.0 0.00 0.04 0.00 78 1018.3
20260502121530 36 19 3.0 7.0 0.00 0.04 0.00 83 1018.3
20260502114529 34 5 1.0 3.0 0.00 0.04 0.00 91 1018.1
20260502113005 33 352 0.0 1.0 0.00 0.04 0.00 90 1018.0
20260502111507 33 352 1.0 2.0 0.00 0.04 0.00 89 1018.0
20260502110010 33 352 0.0 0.0 0.00 0.05 0.00 88 1017.9
20260502104505 34 352 0.0 2.0 0.00 0.07 0.00 88 1017.8
20260502103013 34 340 0.0 2.0 0.00 0.10 0.00 86 1017.6
20260502101509 35 88 0.0 0.0 0.00 0.13 0.00 85 1017.5
20260502091518 37 88 0.0 0.0 0.00 0.18 0.00 81 1017.3
20260502071522 39 337 1.0 4.0 0.00 0.20 0.00 80 1016.6
20260502070037 39 338 2.0 7.0 0.00 0.21 0.00 79 1016.7
20260502064523 39 352 1.0 8.0 0.00 0.22 0.00 78 1016.8
20260502063031 39 324 1.0 7.0 0.00 0.22 0.00 78 1016.8
20260502061508 40 321 2.0 6.0 0.00 0.22 0.00 78 1016.9
20260502060016 40 328 2.0 3.0 0.00 0.22 0.00 78 1016.9
20260502054503 40 311 2.0 8.0 0.00 0.22 0.00 79 1017.0
20260502053003 40 340 2.0 4.0 0.00 0.22 0.00 79 1017.1
20260502051505 39 352 1.0 4.0 0.00 0.23 0.00 81 1017.2
20260502050012 38 315 1.0 3.0 0.00 0.23 0.00 85 1017.2
20260502044504 38 292 0.0 2.0 0.00 0.24 0.00 88 1017.2
20260502043004 38 352 0.0 0.0 0.00 0.24 0.00 87 1017.2
20260502041507 38 352 0.0 0.0 0.00 0.24 0.00 85 1017.1
20260502040005 39 352 0.0 0.0 0.00 0.24 0.00 84 1017.0
20260502034504 40 352 0.0 0.0 0.00 0.24 0.24 84 1016.8
20260502033005 41 352 0.0 0.0 0.00 0.24 0.24 85 1016.8
20260502031505 40 352 0.0 2.0 0.00 0.24 0.24 86 1016.8
20260502030004 40 23 0.0 0.0 0.00 0.24 0.24 87 1016.8
20260502024507 40 23 0.0 0.0 0.00 0.24 0.24 86 1016.8
20260502023020 40 23 0.0 0.0 0.00 0.24 0.24 85 1016.7
20260502021505 40 24 0.0 2.0 0.00 0.24 0.24 84 1016.5
20260502020006 41 24 0.0 0.0 0.00 0.24 0.24 83 1016.4
20260502014507 41 24 0.0 2.0 0.00 0.24 0.24 82 1016.2
20260502013005 41 352 0.0 2.0 0.00 0.24 0.24 81 1015.9
20260502011508 42 344 0.0 4.0 0.00 0.24 0.24 80 1015.9
20260502010003 42 334 1.0 2.0 0.00 0.24 0.24 79 1015.7
20260502004505 42 314 0.0 4.0 0.00 0.24 0.24 78 1015.6
20260502003008 43 350 2.0 7.0 0.00 0.24 0.24 78 1015.7
20260502001509 43 360 4.0 7.0 0.00 0.24 0.24 77 1015.6
20260502000005 44 352 4.0 8.0 0.00 0.24 0.24 75 1015.4
20260501234512 44 342 2.0 4.0 0.00 0.24 0.24 73 1015.3
20260501233010 45 340 6.0 16.0 0.01 0.24 0.24 69 1015.1
20260501231509 46 346 2.0 7.0 0.01 0.24 0.24 69 1014.8
20260501230021 47 11 2.0 6.0 0.01 0.24 0.24 68 1014.7
20260501224510 47 325 3.0 10.0 0.01 0.24 0.24 65 1014.7
20260501223018 48 288 4.0 8.0 0.00 0.23 0.23 60 1014.6